Location: Trebic
(49.2170°N, 15.8830°E)
Time: 14:37:19
(UTC+02:00)

Transit 4A - Pass Details

Date: 03 September 2019
Orbit: 865 x 980 km, 66.8° (Epoch: 15 September)

Event Time Altitude Azimuth Distance (km) Brightness Sun altitude
Rises 21:51:21 0° 315° (NW) 3,664 12.6 -20.6°
Reaches altitude 10° 21:54:52 10° 334° (NNW) 2,698 11.3 -21.0°
Maximum altitude 21:59:04 18° 16° (NNE) 2,144 10.1 -21.5°
Drops below altitude 10° 22:03:10 10° 59° (ENE) 2,644 10.1 -22.0°
Enters shadow 22:04:11 - 66° (ENE) 2,889 10.3 -22.1°
Sets 22:06:35 0° 78° (ENE) 3,562 - -22.4°
